Location: Zlin
(49.2330°N, 17.6670°E)
Time: 05:53:18
(UTC+02:00)

Envisat - Visible Passes

Search period start: 07 October 2022 00:00
Search period end: 17 October 2022 00:00
Orbit: 764 x 765 km, 98.2° (Epoch: 06 October)

Date Brightness Start Highest point End Pass type
(mag) Time Alt. Az. Time Alt. Az. Time Alt. Az.
07 Oct 3.3 05:09:30 10° NNE 05:14:36 70° ESE 05:19:39 10° S visible
08 Oct 4.6 04:32:50 10° NNE 04:37:28 34° E 04:42:03 10° SSE visible
08 Oct 3.5 06:11:50 10° N 06:16:30 37° WNW 06:21:08 10° SW visible
09 Oct 5.6 03:56:49 10° NE 04:00:08 17° E 04:03:24 10° SE visible
09 Oct 2.9 05:34:36 10° N 05:39:42 74° WNW 05:44:45 10° SSW visible
10 Oct 3.7 04:57:41 10° NNE 05:02:42 55° E 05:07:40 10° S visible
11 Oct 4.9 04:21:10 10° NE 04:25:30 27° E 04:29:48 10° SSE visible
11 Oct 3.3 05:59:51 10° N 06:04:42 46° WNW 06:09:32 10° SW visible
12 Oct 5.8 03:45:35 10° ENE 03:48:05 14° E 03:50:35 10° ESE visible
12 Oct 3.0 05:22:43 10° NNE 05:27:50 89° ESE 05:32:55 10° SSW visible
13 Oct 4.1 04:45:54 10° NNE 04:50:47 44° E 04:55:37 10° S visible
13 Oct 3.8 06:25:14 10° N 06:29:37 30° WNW 06:33:58 10° WSW visible
14 Oct 5.3 04:09:33 10° NE 04:13:30 22° E 04:17:26 10° SE visible
14 Oct 3.1 05:47:53 10° N 05:52:52 57° WNW 05:57:50 10° SSW visible
15 Oct 6.0 03:35:00 10° ENE 03:36:01 11° E 03:37:03 10° E visible
15 Oct 3.2 05:10:50 10° NNE 05:15:57 73° ESE 05:21:01 10° S visible
16 Oct 4.5 04:34:09 10° NNE 04:38:49 36° E 04:43:28 10° SSE visible
16 Oct 3.6 06:13:12 10° N 06:17:50 36° WNW 06:22:25 10° SW visible
